Time,TemperatureF,DewpointF,PressureIn,WindDirection,WindDirectionDegrees,WindSpeedMPH,WindSpeedGustMPH,Humidity,HourlyPrecipIn,Conditions,Clouds,dailyrainin,SolarRadiationWatts/m^2,SoftwareType,DateUTC
2013-08-25 00:01:00,67.0,50.0,-100.00,WNW,291,14.0,20.0,54,0.00,,,0.00,0.000000,,2013-08-25 07:01:00,
2013-08-25 00:12:00,67.0,50.0,-100.00,WNW,291,14.0,20.0,54,0.00,,,0.00,0.000000,,2013-08-25 07:12:00,
2013-08-25 00:22:00,67.0,50.0,-100.00,WNW,291,14.0,20.0,54,0.00,,,0.00,0.000000,,2013-08-25 07:22:00,
2013-08-25 00:52:00,66.0,51.0,-100.00,NW,319,11.0,19.0,59,0.00,,,0.00,0.000000,,2013-08-25 07:52:00,
2013-08-25 01:02:00,66.0,51.0,-100.00,NW,319,11.0,19.0,59,0.00,,,0.00,0.000000,,2013-08-25 08:02:00,
2013-08-25 01:12:00,66.0,51.0,-100.00,NW,319,11.0,19.0,59,0.00,,,0.00,0.000000,,2013-08-25 08:12:00,
2013-08-25 01:21:00,66.0,51.0,-100.00,NW,319,11.0,19.0,59,0.00,,,0.00,0.000000,,2013-08-25 08:21:00,
2013-08-25 01:52:00,64.0,51.0,-100.00,WSW,246,4.0,13.0,62,0.00,,,0.00,0.000000,,2013-08-25 08:52:00,
2013-08-25 02:02:00,64.0,51.0,-100.00,WSW,246,4.0,13.0,62,0.00,,,0.00,0.000000,,2013-08-25 09:02:00,
2013-08-25 02:11:00,64.0,51.0,-100.00,WSW,246,4.0,13.0,62,0.00,,,0.00,0.000000,,2013-08-25 09:11:00,
2013-08-25 02:22:00,64.0,51.0,-100.00,WSW,246,4.0,13.0,62,0.00,,,0.00,0.000000,,2013-08-25 09:22:00,
2013-08-25 02:55:00,63.0,50.0,-100.00,West,278,9.0,12.0,62,0.00,,,0.00,0.000000,,2013-08-25 09:55:00,
2013-08-25 03:03:00,63.0,50.0,-100.00,West,278,9.0,12.0,62,0.00,,,0.00,0.000000,,2013-08-25 10:03:00,
2013-08-25 03:12:00,63.0,50.0,-100.00,West,278,9.0,12.0,62,0.00,,,0.00,0.000000,,2013-08-25 10:12:00,
2013-08-25 03:22:00,63.0,50.0,-100.00,West,278,9.0,12.0,62,0.00,,,0.00,0.000000,,2013-08-25 10:22:00,
2013-08-25 03:53:00,64.0,49.0,-100.00,WNW,292,11.0,14.0,59,0.00,,,0.00,0.000000,,2013-08-25 10:53:00,
2013-08-25 04:02:00,64.0,49.0,-100.00,WNW,292,11.0,14.0,59,0.00,,,0.00,0.000000,,2013-08-25 11:02:00,
2013-08-25 04:11:00,64.0,49.0,-100.00,WNW,292,11.0,14.0,59,0.00,,,0.00,0.000000,,2013-08-25 11:11:00,
2013-08-25 04:22:00,64.0,49.0,-100.00,WNW,292,11.0,14.0,59,0.00,,,0.00,0.000000,,2013-08-25 11:22:00,
2013-08-25 04:52:00,63.0,50.0,-100.00,WNW,282,8.0,14.0,63,0.00,,,0.00,0.000000,,2013-08-25 11:52:00,
2013-08-25 05:01:00,63.0,50.0,-100.00,WNW,282,8.0,14.0,63,0.00,,,0.00,0.000000,,2013-08-25 12:01:00,
2013-08-25 05:12:00,63.0,50.0,-100.00,WNW,282,8.0,14.0,63,0.00,,,0.00,0.000000,,2013-08-25 12:12:00,
2013-08-25 05:22:00,63.0,50.0,-100.00,WNW,282,8.0,14.0,63,0.00,,,0.00,0.000000,,2013-08-25 12:22:00,
2013-08-25 05:52:00,59.0,50.0,-100.00,WNW,286,3.0,8.0,72,0.00,,,0.00,0.000000,,2013-08-25 12:52:00,
2013-08-25 06:02:00,59.0,50.0,-100.00,WNW,286,3.0,8.0,72,0.00,,,0.00,0.000000,,2013-08-25 13:02:00,
2013-08-25 06:11:00,59.0,50.0,-100.00,WNW,286,3.0,8.0,72,0.00,,,0.00,0.000000,,2013-08-25 13:11:00,
2013-08-25 06:21:00,59.0,50.0,-100.00,WNW,286,3.0,8.0,72,0.00,,,0.00,0.000000,,2013-08-25 13:21:00,
2013-08-25 06:52:00,61.0,50.0,-100.00,WNW,289,6.0,8.0,67,0.00,,,0.00,2.000000,,2013-08-25 13:52:00,
2013-08-25 07:02:00,61.0,50.0,-100.00,WNW,289,6.0,8.0,67,0.00,,,0.00,2.000000,,2013-08-25 14:02:00,
2013-08-25 07:11:00,61.0,50.0,-100.00,WNW,289,6.0,8.0,67,0.00,,,0.00,2.000000,,2013-08-25 14:11:00,
2013-08-25 07:24:00,61.0,50.0,-100.00,WNW,289,6.0,8.0,67,0.00,,,0.00,2.000000,,2013-08-25 14:24:00,
2013-08-25 08:11:00,62.0,51.0,-100.00,WNW,286,6.0,8.0,67,0.00,,,0.00,47.000000,,2013-08-25 15:11:00,
2013-08-25 08:23:00,62.0,51.0,-100.00,WNW,286,6.0,8.0,67,0.00,,,0.00,47.000000,,2013-08-25 15:23:00,
2013-08-25 08:55:00,65.0,52.0,-100.00,West,267,6.0,8.0,62,0.00,,,0.00,135.000000,,2013-08-25 15:55:00,
2013-08-25 09:04:00,65.0,52.0,-100.00,West,267,6.0,8.0,62,0.00,,,0.00,135.000000,,2013-08-25 16:04:00,
2013-08-25 09:13:00,65.0,52.0,-100.00,West,267,6.0,8.0,62,0.00,,,0.00,135.000000,,2013-08-25 16:13:00,
2013-08-25 09:24:00,65.0,52.0,-100.00,West,267,6.0,8.0,62,0.00,,,0.00,135.000000,,2013-08-25 16:24:00,
2013-08-25 09:54:00,70.0,50.0,-100.00,SW,219,4.0,8.0,49,0.00,,,0.00,332.000000,,2013-08-25 16:54:00,
2013-08-25 10:03:00,70.0,50.0,-100.00,SW,219,4.0,8.0,49,0.00,,,0.00,332.000000,,2013-08-25 17:03:00,
2013-08-25 10:11:00,70.0,50.0,-100.00,SW,219,4.0,8.0,49,0.00,,,0.00,332.000000,,2013-08-25 17:11:00,
2013-08-25 10:22:00,70.0,50.0,-100.00,SW,219,4.0,8.0,49,0.00,,,0.00,332.000000,,2013-08-25 17:22:00,
2013-08-25 10:53:00,72.0,48.0,-100.00,WNW,288,5.0,9.0,43,0.00,,,0.00,520.000000,,2013-08-25 17:53:00,
2013-08-25 11:02:00,72.0,48.0,-100.00,WNW,288,5.0,9.0,43,0.00,,,0.00,520.000000,,2013-08-25 18:02:00,
2013-08-25 11:12:00,72.0,48.0,-100.00,WNW,288,5.0,9.0,43,0.00,,,0.00,520.000000,,2013-08-25 18:12:00,
2013-08-25 11:21:00,72.0,48.0,-100.00,WNW,288,5.0,9.0,43,0.00,,,0.00,520.000000,,2013-08-25 18:21:00,
2013-08-25 11:52:00,76.0,46.0,-100.00,West,270,5.0,8.0,34,0.00,,,0.00,804.000000,,2013-08-25 18:52:00,
2013-08-25 12:02:00,76.0,46.0,-100.00,West,270,5.0,8.0,34,0.00,,,0.00,804.000000,,2013-08-25 19:02:00,
2013-08-25 12:11:00,76.0,46.0,-100.00,West,270,5.0,8.0,34,0.00,,,0.00,804.000000,,2013-08-25 19:11:00,
2013-08-25 12:22:00,76.0,46.0,-100.00,West,270,5.0,8.0,34,0.00,,,0.00,804.000000,,2013-08-25 19:22:00,
2013-08-25 12:53:00,78.0,47.0,-100.00,NW,309,6.0,10.0,34,0.00,,,0.00,804.000000,,2013-08-25 19:53:00,
2013-08-25 13:03:00,78.0,47.0,-100.00,NW,309,6.0,10.0,34,0.00,,,0.00,804.000000,,2013-08-25 20:03:00,
2013-08-25 13:12:00,78.0,47.0,-100.00,NW,309,6.0,10.0,34,0.00,,,0.00,804.000000,,2013-08-25 20:12:00,
2013-08-25 13:23:00,78.0,47.0,-100.00,NW,309,6.0,10.0,34,0.00,,,0.00,804.000000,,2013-08-25 20:23:00,
2013-08-25 13:53:00,80.0,46.0,-100.00,NW,321,6.0,10.0,30,0.00,,,0.00,886.000000,,2013-08-25 20:53:00,
2013-08-25 14:01:00,80.0,46.0,-100.00,NW,321,6.0,10.0,30,0.00,,,0.00,886.000000,,2013-08-25 21:01:00,
2013-08-25 14:12:00,80.0,46.0,-100.00,NW,321,6.0,10.0,30,0.00,,,0.00,886.000000,,2013-08-25 21:12:00,
2013-08-25 14:22:00,80.0,46.0,-100.00,NW,321,6.0,10.0,30,0.00,,,0.00,886.000000,,2013-08-25 21:22:00,
2013-08-25 14:55:00,81.0,47.0,-100.00,NW,321,5.0,9.0,30,0.00,,,0.00,699.000000,,2013-08-25 21:55:00,
2013-08-25 15:03:00,81.0,47.0,-100.00,NW,321,5.0,9.0,30,0.00,,,0.00,699.000000,,2013-08-25 22:03:00,
2013-08-25 15:14:00,81.0,47.0,-100.00,NW,321,5.0,9.0,30,0.00,,,0.00,699.000000,,2013-08-25 22:14:00,
2013-08-25 15:24:00,81.0,47.0,-100.00,NW,321,5.0,9.0,30,0.00,,,0.00,699.000000,,2013-08-25 22:24:00,
2013-08-25 15:53:00,82.0,46.0,-100.00,NNW,330,6.0,10.0,28,0.00,,,0.00,632.000000,,2013-08-25 22:53:00,
2013-08-25 16:03:00,82.0,46.0,-100.00,NNW,330,6.0,10.0,28,0.00,,,0.00,632.000000,,2013-08-25 23:03:00,
2013-08-25 16:12:00,82.0,46.0,-100.00,NNW,330,6.0,10.0,28,0.00,,,0.00,632.000000,,2013-08-25 23:12:00,
2013-08-25 16:23:00,82.0,46.0,-100.00,NNW,330,6.0,10.0,28,0.00,,,0.00,632.000000,,2013-08-25 23:23:00,
2013-08-25 16:53:00,82.0,48.0,-100.00,NW,308,6.0,9.0,31,0.00,,,0.00,499.000000,,2013-08-25 23:53:00,
2013-08-25 17:02:00,82.0,48.0,-100.00,NW,308,6.0,9.0,31,0.00,,,0.00,499.000000,,2013-08-26 00:02:00,
2013-08-25 17:11:00,82.0,48.0,-100.00,NW,308,6.0,9.0,31,0.00,,,0.00,499.000000,,2013-08-26 00:11:00,
2013-08-25 17:22:00,82.0,48.0,-100.00,NW,308,6.0,9.0,31,0.00,,,0.00,499.000000,,2013-08-26 00:22:00,
2013-08-25 17:52:00,81.0,50.0,-100.00,North,351,4.0,9.0,34,0.00,,,0.00,218.000000,,2013-08-26 00:52:00,
2013-08-25 18:01:00,81.0,50.0,-100.00,North,351,4.0,9.0,34,0.00,,,0.00,218.000000,,2013-08-26 01:01:00,
2013-08-25 18:11:00,81.0,50.0,-100.00,North,351,4.0,9.0,34,0.00,,,0.00,218.000000,,2013-08-26 01:11:00,
2013-08-25 18:22:00,81.0,50.0,-100.00,North,351,4.0,9.0,34,0.00,,,0.00,218.000000,,2013-08-26 01:22:00,
2013-08-25 18:52:00,77.0,53.0,-100.00,WNW,288,7.0,9.0,43,0.00,,,0.00,125.000000,,2013-08-26 01:52:00,
2013-08-25 19:02:00,77.0,53.0,-100.00,WNW,288,7.0,9.0,43,0.00,,,0.00,125.000000,,2013-08-26 02:02:00,
2013-08-25 19:11:00,77.0,53.0,-100.00,WNW,288,7.0,9.0,43,0.00,,,0.00,125.000000,,2013-08-26 02:11:00,
2013-08-25 19:21:00,77.0,53.0,-100.00,WNW,288,7.0,9.0,43,0.00,,,0.00,125.000000,,2013-08-26 02:21:00,
2013-08-25 19:52:00,63.0,59.0,-100.00,NW,315,16.0,32.0,86,0.06,,,0.06,9.000000,,2013-08-26 02:52:00,
2013-08-25 20:02:00,63.0,59.0,-100.00,NW,315,16.0,32.0,86,0.06,,,0.06,9.000000,,2013-08-26 03:02:00,
2013-08-25 20:22:00,63.0,59.0,-100.00,NW,315,16.0,32.0,86,0.06,,,0.06,9.000000,,2013-08-26 03:22:00,
2013-08-25 20:56:00,63.0,59.0,-100.00,WNW,285,4.0,21.0,88,0.01,,,0.07,0.000000,,2013-08-26 03:56:00,
2013-08-25 21:05:00,63.0,59.0,-100.00,WNW,285,4.0,21.0,88,0.01,,,0.07,0.000000,,2013-08-26 04:05:00,
2013-08-25 21:14:00,63.0,59.0,-100.00,WNW,285,4.0,21.0,88,0.01,,,0.07,0.000000,,2013-08-26 04:14:00,
2013-08-25 21:24:00,63.0,59.0,-100.00,WNW,285,4.0,21.0,88,0.01,,,0.07,0.000000,,2013-08-26 04:24:00,
2013-08-25 21:53:00,62.0,60.0,-100.00,SSE,150,0.0,5.0,92,0.00,,,0.07,0.000000,,2013-08-26 04:53:00,
2013-08-25 22:03:00,62.0,60.0,-100.00,SSE,150,0.0,5.0,92,0.00,,,0.07,0.000000,,2013-08-26 05:03:00,
2013-08-25 22:13:00,62.0,60.0,-100.00,SSE,150,0.0,5.0,92,0.00,,,0.07,0.000000,,2013-08-26 05:13:00,
2013-08-25 22:22:00,62.0,60.0,-100.00,SSE,150,0.0,5.0,92,0.00,,,0.07,0.000000,,2013-08-26 05:22:00,
2013-08-25 22:52:00,60.0,58.0,-100.00,North,358,2.0,4.0,94,0.00,,,0.07,0.000000,,2013-08-26 05:52:00,
2013-08-25 23:02:00,60.0,58.0,-100.00,North,358,2.0,4.0,94,0.00,,,0.07,0.000000,,2013-08-26 06:02:00,
2013-08-25 23:12:00,60.0,58.0,-100.00,North,358,2.0,4.0,94,0.00,,,0.07,0.000000,,2013-08-26 06:12:00,
2013-08-25 23:21:00,60.0,58.0,-100.00,North,358,2.0,4.0,94,0.00,,,0.07,0.000000,,2013-08-26 06:21:00,
2013-08-25 23:52:00,63.0,57.0,-100.00,NE,51,3.0,7.0,81,0.00,,,0.07,0.000000,,2013-08-26 06:52:00,